Theta_e
329 326 326 326 315 318 316 316 323 319 323 331 331 329 328 330 324 321 340 339 335 343 354 362 363 363 363 362 362 362 362 362 361 360 359 359 358 358 357 358 358 357 357 358 359 357 356 355 354
324 321 324 320 311 310 312 315 312 315 324 330 331 332 330 327 335 337 339 338 338 346 355 356 363 363 363 362 362 361 361 360 360 359 357 357 357 355 354 354 354 354 354 354 355 355 356 356 355
325 320 315 313 311 310 312 313 312 314 317 328 327 328 330 331 337 338 344 340 340 347 353 358 363 362 362 362 362 361 361 360 359 358 357 356 355 355 355 354 354 354 353 353 352 352 353 353 353
321 318 315 307 309 312 312 312 313 314 316 317 326 320 336 340 339 341 345 340 342 345 351 361 363 363 363 361 361 362 361 360 359 357 356 354 353 354 355 356 356 356 355 354 353 353 352 351 351
320 316 307 305 307 309 311 313 314 315 318 316 321 318 328 343 344 345 343 340 339 343 349 359 363 363 362 361 360 361 361 361 360 358 355 353 352 353 355 357 358 355 352 350 348 347 345 344 343
313 313 305 303 305 308 312 314 314 315 323 318 318 318 331 346 343 343 343 342 340 341 348 356 362 362 362 361 361 362 361 361 360 359 358 355 352 351 353 356 356 353 348 344 341 340 339 340 341
311 308 305 304 304 307 309 315 313 316 323 314 330 320 339 341 345 343 343 343 343 343 346 354 356 360 362 361 361 362 362 361 360 359 358 355 352 350 349 351 354 353 348 342 340 338 338 341 343
314 311 303 304 305 307 311 313 314 317 328 333 339 328 334 344 347 344 342 343 344 344 345 349 352 353 353 356 361 361 361 361 360 359 357 356 353 351 349 350 350 350 350 345 342 341 342 345 349
314 307 305 303 306 308 312 311 316 323 331 335 338 336 342 348 349 343 341 341 342 343 346 347 348 350 351 351 355 360 359 359 359 358 357 353 349 349 348 349 348 348 349 349 346 346 346 349 351
311 307 305 309 310 309 311 311 312 316 330 331 331 339 345 348 346 342 340 338 339 341 343 347 348 349 350 350 355 354 352 353 353 353 355 350 349 350 351 351 350 350 349 350 351 349 348 345 342
310 308 308 309 310 311 310 311 313 314 318 320 318 330 340 344 346 344 342 341 340 342 345 347 349 352 351 351 354 352 352 351 353 355 356 353 349 349 347 350 348 349 349 345 345 345 341 341 343
306 308 309 309 310 309 309 311 311 312 314 316 315 319 335 341 344 344 344 345 345 344 346 349 351 354 354 351 352 353 352 353 351 353 357 353 350 349 350 348 349 350 347 348 348 344 347 344 343
307 307 308 309 310 310 311 309 310 311 314 316 317 320 326 333 340 345 346 348 348 346 347 349 351 351 353 356 353 353 352 352 353 352 354 350 347 346 348 350 349 350 351 349 349 349 349 346 344
308 308 308 309 309 310 308 309 309 312 316 316 316 316 319 326 332 341 346 347 350 351 350 350 351 356 354 355 358 353 355 353 353 352 351 353 350 349 344 347 349 350 352 353 353 351 351 348 346
308 306 307 307 308 308 309 306 307 313 315 315 316 317 318 320 327 334 343 349 351 353 353 352 353 355 357 356 357 356 355 354 353 352 355 354 354 353 351 344 345 350 353 354 354 355 354 352 349
305 306 303 307 307 307 309 303 309 313 314 313 315 316 317 319 321 327 337 348 354 355 354 353 352 353 358 357 356 354 354 354 353 353 353 355 353 354 353 345 344 345 351 351 351 351 350 351 350
305 302 301 303 308 308 307 305 310 314 314 313 317 320 321 318 321 327 333 343 353 356 355 354 355 353 356 360 357 357 357 355 355 354 352 354 353 350 351 345 344 350 347 348 350 349 351 349 350
301 301 302 302 307 308 306 306 310 313 314 317 322 326 327 324 321 331 336 341 350 355 357 356 355 357 357 358 358 355 353 354 353 353 353 355 350 350 352 347 349 352 347 346 350 353 351 349 349
304 302 301 304 307 306 306 307 309 312 316 319 324 328 332 331 334 339 339 341 345 352 356 358 356 358 356 354 352 351 349 351 351 352 353 352 353 351 354 348 353 357 357 357 355 354 351 348 350
303 302 302 305 307 306 306 305 309 311 317 321 323 326 329 333 335 337 342 344 343 346 351 356 357 358 358 355 354 352 351 351 350 351 353 353 353 354 352 352 349 349 348 354 355 351 349 347 348
303 301 301 301 305 307 305 303 306 311 316 319 322 324 325 326 328 329 332 335 343 346 347 351 355 357 357 357 355 354 353 350 347 348 350 353 355 355 357 352 349 349 351 348 348 344 347 347 352
301 303 303 302 301 297 304 296 304 308 310 315 319 321 323 322 326 325 324 325 328 331 341 351 352 355 355 358 355 356 349 346 347 348 348 353 358 356 356 357 353 339 346 349 346 343 346 345 340
301 304 303 302 300 300 300 298 303 306 307 311 315 319 319 316 319 321 321 322 325 325 327 331 340 345 352 355 354 352 352 349 356 355 358 360 358 356 356 356 355 348 349 348 341 339 342 342 341
304 302 302 302 300 294 300 299 301 306 307 310 314 317 317 316 315 317 318 320 320 323 324 323 327 330 332 334 334 335 337 343 342 344 348 346 348 349 351 349 352 355 354 346 340 341 341 341 339
303 300 294 293 294 295 301 297 303 308 310 312 313 315 314 315 313 312 312 314 316 318 322 323 324 324 325 327 329 329 330 330 332 335 338 340 342 344 345 350 351 345 346 349 345 342 343 343 342
300 299 293 287 290 294 299 293 303 309 313 314 315 315 314 312 312 310 311 312 314 315 317 318 321 323 325 327 329 329 331 331 331 331 333 332 336 336 341 342 344 345 349 344 346 347 346 347 346
300 298 303 295 297 293 297 299 307 310 310 311 312 313 311 312 309 309 310 311 313 315 318 319 318 319 321 322 323 325 326 327 325 326 331 328 331 330 332 333 335 339 343 346 348 345 344 349 349
302 304 296 298 288 287 293 294 297 303 304 308 309 311 311 313 309 308 310 311 314 313 315 317 320 320 320 321 320 320 322 323 325 326 325 328 330 331 332 332 332 333 337 340 344 346 349 345 347
300 299 299 299 296 291 289 294 306 303 306 307 310 312 313 313 311 309 311 312 314 314 312 312 314 314 315 318 318 319 320 319 322 323 323 324 327 329 328 330 330 329 330 334 338 340 343 344 346
301 299 299 294 292 296 294 293 305 307 307 309 310 312 315 315 314 314 315 314 311 313 313 311 312 311 311 314 314 314 316 315 317 319 320 324 324 326 328 330 331 329 329 331 329 329 334 336 337
Wind_Speed
8 6 5 7 9 6 5 7 2 4 3 5 1 4 5 7 8 7 5 13 21 21 21 19 17 17 17 15 16 16 15 13 13 12 12 13 12 11 10 9 9 10 9 9 9 10 9 9 9
5 6 7 6 9 8 8 2 5 8 10 3 3 6 8 2 2 7 13 14 22 21 19 19 17 16 17 16 15 15 15 13 13 12 11 11 11 11 10 9 9 8 8 7 7 7 7 6 6
7 6 8 5 7 8 6 2 7 9 7 1 2 2 6 5 5 9 11 19 21 19 19 18 16 15 15 16 15 14 13 13 12 12 11 10 10 10 9 9 8 8 7 7 6 5 5 5 4
5 6 5 10 10 4 5 7 9 10 7 7 5 5 8 6 0 6 19 22 20 19 18 19 16 15 14 14 14 14 14 13 11 11 11 10 10 9 9 9 8 7 7 6 6 5 3 2 2
6 4 7 9 6 0 1 7 10 9 4 3 5 2 3 7 6 14 20 20 20 19 17 18 14 15 14 15 15 13 12 11 12 11 10 10 9 9 9 9 8 7 6 5 4 4 3 1 1
7 5 7 9 6 4 2 9 10 10 2 3 5 3 6 9 10 18 19 20 19 18 17 18 14 12 14 14 13 12 11 10 10 10 10 9 9 8 8 8 8 7 5 3 2 1 2 2 2
11 7 2 0 6 6 5 10 9 8 4 4 2 4 7 7 12 16 17 17 17 18 18 17 17 15 12 13 13 12 11 11 10 9 9 9 9 8 7 7 6 6 5 3 2 3 3 4 4
5 6 6 4 10 11 5 7 7 5 7 4 1 4 9 12 15 15 15 16 16 15 17 18 17 17 16 14 13 13 13 12 11 10 10 9 9 8 8 8 7 5 5 4 4 4 4 5 6
4 7 5 5 7 5 4 6 10 3 3 3 5 10 10 17 17 18 16 15 16 15 16 16 17 17 15 15 14 13 13 12 10 10 9 9 9 10 11 10 8 6 6 5 5 5 5 7 11
8 7 3 3 2 4 6 6 7 4 7 7 10 10 12 15 16 18 18 17 20 19 18 16 16 15 15 12 14 13 12 11 11 11 11 9 6 5 1 6 6 6 7 6 6 6 8 10 4
4 3 3 3 4 6 8 7 6 5 6 11 8 9 10 11 14 16 17 17 19 19 15 15 12 13 15 12 10 8 7 8 8 10 9 8 6 6 7 6 7 7 8 8 9 8 8 1 4
7 1 2 1 1 6 7 9 8 4 11 9 3 3 7 10 13 15 16 17 18 20 19 19 19 14 16 11 10 9 8 9 8 10 11 7 6 6 5 5 5 5 5 3 5 3 1 2 1
8 4 2 3 6 6 8 9 7 10 7 8 5 1 3 7 10 11 12 13 15 17 19 20 19 10 10 10 9 9 9 8 9 8 11 8 7 6 6 5 5 4 5 5 4 3 3 3 3
2 2 3 4 6 5 8 8 6 3 9 8 5 4 5 7 7 9 12 14 15 15 18 19 20 17 14 9 11 10 8 8 9 8 8 11 7 6 6 5 6 5 5 4 4 4 4 4 4
2 9 5 2 2 2 7 12 11 6 8 10 8 7 6 9 8 11 12 15 14 14 16 19 18 18 18 17 11 10 10 9 8 8 9 10 10 7 7 6 5 6 5 5 5 5 6 6 6
5 7 8 7 3 4 6 7 2 5 7 9 9 9 9 11 12 11 10 11 12 13 16 17 15 18 17 15 13 10 11 9 9 8 8 11 10 9 8 7 6 6 5 6 6 5 5 5 5
6 4 3 5 3 4 3 7 2 6 6 6 7 9 11 11 12 12 10 10 11 11 12 15 16 17 17 15 11 9 6 6 9 8 9 9 10 9 9 7 5 5 6 6 6 6 5 5 5
1 5 5 4 4 6 8 8 6 5 6 7 10 11 13 11 8 13 14 11 8 9 10 11 12 14 12 10 10 9 10 9 10 8 8 10 7 9 9 9 5 7 6 6 6 4 6 5 5
1 3 4 2 3 9 8 9 9 3 7 9 11 14 16 12 7 12 9 7 6 6 8 10 12 12 10 10 10 10 10 9 8 10 9 8 7 4 6 6 4 5 3 2 5 6 7 7 4
4 5 1 8 2 9 11 14 11 3 7 11 14 15 16 16 17 15 14 9 6 5 6 8 10 12 11 9 8 8 9 9 9 9 9 10 10 11 11 6 5 4 3 2 1 3 6 5 5
0 7 5 9 11 16 7 17 11 9 9 11 13 14 16 17 14 15 15 15 15 8 4 6 8 9 11 11 7 6 6 6 8 8 9 9 9 9 8 6 6 6 4 3 2 6 12 4 5
7 5 8 11 11 8 4 5 11 10 8 12 14 15 16 18 16 14 14 14 13 12 11 7 6 8 9 10 9 9 8 8 7 6 6 5 7 8 9 7 6 4 6 7 5 4 9 4 3
6 11 12 13 14 14 13 7 10 6 7 12 14 15 15 15 17 16 14 13 13 14 12 12 15 13 6 6 6 8 9 5 2 3 6 3 6 5 4 4 7 9 7 10 8 9 5 3 5
8 11 16 11 9 11 7 6 6 7 7 11 12 13 13 13 16 15 14 13 14 12 13 14 14 14 14 16 16 16 15 12 9 8 5 5 5 6 5 3 2 4 6 7 5 8 9 6 7
8 10 7 7 8 1 5 8 11 8 8 9 11 12 11 13 15 15 16 15 15 15 13 12 12 14 13 15 14 14 11 11 9 8 6 6 5 4 7 4 3 3 4 7 7 8 8 12 12
6 7 7 7 7 6 8 6 9 7 5 6 7 8 8 12 13 15 13 12 14 15 16 16 16 14 14 13 14 13 12 6 5 6 4 3 4 5 5 4 4 3 5 6 7 7 10 10 11
5 6 7 9 6 8 4 5 10 4 2 4 6 6 7 10 12 13 12 10 12 14 15 15 15 15 15 15 12 10 10 7 6 5 7 4 3 3 2 4 3 3 3 2 6 7 8 9 9
8 4 6 7 5 5 5 5 5 3 7 6 6 4 5 10 11 9 7 8 13 10 10 13 13 12 11 11 10 9 10 10 8 8 5 5 5 3 3 4 3 3 2 2 3 5 6 8 6
6 8 4 6 5 5 5 2 6 4 3 6 7 2 7 9 11 9 6 7 10 10 10 9 10 10 11 12 12 10 10 10 8 9 8 9 7 4 1 2 2 2 3 4 4 5 6 7 8
5 5 6 5 5 6 6 7 8 1 5 7 9 4 6 9 11 8 7 2 4 6 5 6 8 6 6 7 6 8 9 9 10 8 8 9 9 10 7 4 3 3 2 2 4 5 6 7 7
Wind_Direction
242 259 265 252 255 237 132 93 96 37 21 37 260 240 328 337 341 26 130 158 151 149 150 161 155 154 149 147 138 136 134 135 135 136 134 130 127 124 118 115 116 115 114 110 111 111 112 118 120
282 261 234 276 257 231 112 95 57 4 14 72 266 238 242 66 24 103 143 154 154 145 151 159 156 154 148 142 138 137 136 137 136 135 132 129 126 125 122 118 118 118 117 113 113 116 120 125 129
251 256 267 257 252 256 118 83 353 342 320 129 238 262 343 45 84 147 112 154 150 150 154 141 156 152 149 143 140 137 134 135 136 134 131 128 126 127 127 126 126 126 124 125 129 131 136 143 149
232 197 216 251 215 75 328 0 352 323 304 245 259 285 131 41 339 137 144 151 147 153 154 136 154 154 149 146 142 142 141 140 138 138 138 139 136 134 131 131 128 123 122 127 136 143 144 158 190
221 248 232 237 224 320 82 357 333 332 291 269 234 229 64 64 91 131 151 153 158 154 152 154 157 155 154 153 151 148 146 144 144 147 149 147 143 140 135 131 128 125 124 127 135 144 152 183 262
214 281 228 218 146 132 76 342 326 331 30 220 200 208 71 112 124 142 155 158 158 154 149 150 157 159 157 156 154 150 148 147 150 154 152 147 143 140 137 134 131 130 130 132 145 179 235 247 266
268 238 272 254 143 159 25 336 355 337 328 146 31 167 92 131 126 145 157 159 158 159 160 158 168 166 163 159 157 157 156 157 159 157 153 152 150 147 143 142 140 136 138 152 181 215 244 267 277
270 268 206 200 175 100 22 334 12 349 68 110 258 67 116 136 142 147 157 160 162 169 167 168 173 175 179 170 167 167 166 167 168 164 163 163 156 154 154 163 155 154 155 174 198 208 239 262 264
252 241 201 132 195 81 23 346 26 19 199 145 87 60 102 147 149 152 161 168 173 177 176 178 180 177 186 176 173 177 178 177 173 175 176 176 195 175 166 94 138 174 181 186 202 210 236 260 249
248 264 105 49 27 316 322 334 357 312 165 145 127 99 122 152 164 164 176 177 182 183 184 183 186 182 190 181 172 194 184 193 193 192 181 213 173 180 254 124 170 191 196 203 215 220 227 233 233
169 291 124 162 329 318 313 291 332 315 130 45 48 106 148 164 179 183 186 189 189 184 184 186 189 189 199 190 180 194 192 197 195 199 199 215 182 177 200 168 178 183 199 200 200 193 221 90 305
219 137 231 49 343 311 307 326 300 317 17 341 24 29 152 181 190 197 198 195 193 189 187 186 194 192 199 191 188 195 202 199 198 196 196 205 210 188 203 202 176 197 185 162 227 201 26 240 256
243 155 201 248 287 296 303 282 323 284 13 351 20 326 211 213 208 210 205 203 199 193 192 194 191 189 192 214 192 210 213 202 206 199 197 211 215 203 203 198 220 211 165 195 196 213 213 209 213
68 257 263 273 290 268 277 273 283 160 348 329 331 307 254 244 236 209 216 211 200 200 195 197 191 183 196 208 202 201 212 214 221 207 208 212 221 197 211 211 225 224 217 207 226 211 237 241 268
207 258 188 171 10 109 314 251 229 280 332 317 310 313 299 268 242 239 217 220 208 202 201 196 196 191 200 200 206 213 200 216 218 220 210 213 212 203 234 223 233 231 227 254 228 224 225 248 232
241 241 215 125 285 125 290 263 71 284 346 307 313 325 322 283 264 256 238 231 217 211 199 198 193 195 199 206 202 208 223 197 221 219 213 215 217 234 214 213 228 236 236 238 246 246 248 247 241
196 226 255 173 115 321 254 315 298 299 317 326 342 341 339 308 265 266 267 240 225 218 212 206 200 203 196 203 213 220 236 207 212 215 217 206 218 224 245 236 219 228 239 243 256 240 250 268 252
120 232 198 260 103 295 260 268 307 39 331 13 8 4 0 349 360 347 324 301 249 224 212 209 207 217 200 194 203 211 217 212 225 213 224 204 221 208 222 234 223 232 229 232 248 283 285 281 289
20 272 286 311 80 297 276 285 282 22 22 25 20 17 8 4 12 360 340 319 291 268 227 208 207 202 205 204 202 208 216 212 212 215 213 209 197 226 266 234 185 256 235 277 306 283 249 267 238
252 269 293 273 311 301 287 290 279 73 50 42 28 27 12 7 8 2 353 353 346 282 242 223 217 202 203 208 218 217 210 217 217 201 204 208 188 204 210 195 166 155 238 150 287 298 280 263 252
215 321 330 313 309 268 278 264 215 131 82 46 36 36 18 4 15 8 10 8 354 354 306 219 212 202 209 225 203 203 222 229 203 202 199 198 207 211 205 170 158 179 166 180 109 56 311 287 315
267 12 289 296 304 304 26 298 183 153 132 40 25 28 24 9 16 20 16 17 16 10 4 322 186 188 197 197 207 213 229 226 217 213 202 203 209 217 216 220 181 225 252 238 131 100 301 319 285
355 319 293 292 288 289 248 244 112 142 125 19 16 27 22 17 17 18 25 25 27 26 30 37 42 41 17 198 244 196 228 208 192 200 138 122 64 37 344 266 207 194 204 218 188 207 233 191 287
305 284 279 277 254 238 90 273 101 56 13 4 17 30 23 31 27 24 21 22 41 31 36 42 49 52 54 61 57 54 46 53 52 45 63 91 93 83 74 57 268 236 224 228 241 209 206 223 235
301 302 273 227 199 318 121 268 58 86 36 19 18 31 33 44 42 33 18 19 27 30 36 42 42 55 50 59 59 61 58 59 53 39 38 50 64 65 69 30 121 205 245 242 226 232 224 216 227
317 318 303 290 295 334 182 249 98 67 71 43 43 58 51 56 51 44 41 23 14 36 37 49 47 47 52 62 61 62 64 62 78 71 39 50 23 38 21 54 50 31 179 205 234 231 230 222 229
96 260 18 287 229 261 227 133 146 107 84 46 36 59 71 75 70 47 42 21 15 20 18 33 50 52 39 42 57 53 49 51 81 61 6 353 50 87 22 43 42 60 6 177 205 219 237 241 232
292 49 215 194 261 263 203 253 275 94 2 6 19 65 112 113 96 88 60 19 18 16 7 9 16 37 45 64 60 60 51 39 47 51 39 8 6 331 14 20 22 15 25 337 288 221 231 243 244
175 204 241 305 278 279 286 262 75 331 21 335 343 341 155 152 135 147 140 47 0 21 10 9 8 29 25 26 24 31 44 39 26 44 14 4 347 339 349 326 345 360 7 346 311 287 264 267 263
277 269 260 271 213 260 311 273 43 91 3 332 313 262 192 179 175 168 154 130 48 26 340 342 1 5 35 27 30 34 29 25 12 24 7 3 348 343 347 320 300 282 323 335 315 299 316 293 273